Location: Nelson
(41.2830°S, 173.2830°E)
Time: 19:37:17
(UTC+12:00)

Cosmos 1437 Rocket - Pass Details

Date: 14 May 2021
Orbit: 501 x 565 km, 81.2° (Epoch: 19 June)

Event Time Altitude Azimuth Distance (km) Brightness Sun altitude
Rises 18:22:12 0° 182° (S) 2,645 6.2 -12.0°
Reaches altitude 10° 18:24:29 10° 173° (S) 1,748 5.2 -12.4°
Maximum altitude 18:28:02 36° 104° (ESE) 823 3.2 -13.1°
Drops below altitude 10° 18:31:34 10° 36° (NE) 1,726 5.1 -13.7°
Sets 18:33:47 0° 27° (NNE) 2,606 6.1 -14.1°
